Regional Weather Roundup
Issued by NWS

Home | Current Version | Previous Version | Graphics & Text | Print | Product List | Glossary On
Versions: 1 2 3 4 5 6 7 8 9 10 11 12 13 14 15 16 17 18 19 20 21 22 23 24 25 26 27 28 29 30 31 32 33 34 35 36 37 38 39 40 41 42 43 44 45 46 47 48 49 50
000
ASUS43 KMPX 300810
RWRMN
WEATHER ROUNDUP FOR MINNESOTA
NATIONAL WEATHER SERVICE TWIN CITIES/CHANHASSEN MN
200 AM CST FRI JAN 30 2015


NOTE: "FAIR" INDICATES FEW OR NO CLOUDS BELOW 12,000 FEET WITH NO
SIGNIFICANT WEATHER AND/OR OBSTRUCTIONS TO VISIBILITY. N/A MEANS
CURRENT SKY AND/OR WEATHER CONDITIONS ARE NOT AVAILABLE.

MNZ060>063-068>070-300900-
   Twin Cities Metro

CITY           SKY/WX    TMP DP  RH WIND       PRES   REMARKS
TWIN CITIES    PTCLDY    14   6  70 NW9       30.55F WCI   2
ST PAUL        CLEAR     13   6  74 NW9       30.57F WCI   1
CRYSTAL        CLEAR     14   6  70 NW8       30.55S WCI   3
BLAINE         CLEAR     12   7  79 NW6       30.54F WCI   3
LAKEVILLE      CLEAR     10   7  85 NW7       30.55R WCI   0
EDEN PRAIRIE   CLEAR     13   6  74 NW7       30.54S WCI   3
SOUTH ST PAUL  CLEAR     15   6  68 N3        30.56S
LAKE ELMO      FAIR      12   5  73 N5        30.56S WCI   4
$$
MNZ001>005-007-008-013>017-022>024-027-028-300900-
   Northwest Minnesota

CITY           SKY/WX    TMP DP  RH WIND       PRES   REMARKS
BEMIDJI        MOCLDY    -1  -4  86 CALM      30.48F
HALLOCK        CLOUDY     3   0  85 S8        30.50F WCI -10
ROSEAU         MOCLDY     0  -6  78 CALM      30.50F
WARROAD        MOCLDY    -2  -8  78 CALM      30.49F
THIEF RVR FALL MOCLDY     1   0  92 SE3       30.51R
CROOKSTON      CLEAR      5   0  78 S6        30.54S WCI  -6
FOSSTON        MOCLDY     0  -4  85 CALM      30.48F
DETROIT LAKES  PTCLDY     5   1  85 SE5       30.50F WCI  -4
MOORHEAD       PTCLDY     9   3  78 SE5       30.54F WCI   0
PARK RAPIDS    MOCLDY     3  -2  79 CALM      30.48F
MAHNOMEN       FAIR       2  -1  84 SE5       30.48F WCI  -7
$$
MNZ006-009>011-018-025>026-300900-
   North Central Minnesota

CITY           SKY/WX    TMP DP  RH WIND       PRES   REMARKS
BAUDETTE       MOCLDY    -4  -8  83 CALM      30.47F
FLAG ISLAND    MOCLDY    -4  -9  77 CALM      30.48F
INTL FALLS     MOCLDY   -15 -18  86 CALM      30.48F
WASKISH        MOCLDY    -4  -8  84 CALM      30.50F
BIG FORK       PTCLDY    -9 -15  77 CALM      30.49F
LONGVILLE      PTCLDY     1   0  92 CALM      30.51S
GRAND RAPIDS   PTCLDY     1  -4  78 NW5       30.48S WCI  -8
CRANE LAKE     CLOUDY    -2  -6  84 CALM      30.51S
ORR            PTCLDY    -6 -11  77 CALM      30.45S
COOK           PTCLDY    -8  -9  92 CALM      30.48S
WALKER         FAIR      -1  -4  85 CALM      30.50S
$$
MNZ012-019>021-037-300900-
   Northeast Minnesota

CITY           SKY/WX    TMP DP  RH WIND       PRES   REMARKS
DULUTH         PTCLDY     1  -4  79 W7        30.46R WCI -12
ELY            CLOUDY     3  -2  78 W5        30.45R WCI  -6
HIBBING        PTCLDY    -4 -10  75 W5        30.48S WCI -15
EVELETH        MOCLDY     1  -4  78 W3        30.48S
DULUTH HARBOR  PTCLDY     7   1  78 CALM      30.55S
TWO HARBORS    PTCLDY     5   0  78 CALM      30.46S
SILVER BAY     PTCLDY     7   0  72 CALM      30.46R
GRAND MARAIS     N/A      5  -3  69 CALM      30.52R
G MARAIS ARPRT PTCLDY    -2  -9  71 NW10      30.38R WCI -19
$$
MNZ029>031-032-039>041-046>048-054>057-064-300900-
   West Central Minnesota

CITY           SKY/WX    TMP DP  RH WIND       PRES   REMARKS
FERGUS FALLS   PTCLDY     7   0  72 CALM      30.56F
WHEATON        CLEAR      9   3  78 CALM      30.56F
MORRIS         CLEAR      9   5  85 CALM      30.53S
ALEXANDRIA     CLEAR      7   2  80 N3        30.50F
ELBOW LAKE     FAIR       7   3  84 CALM      30.52F
WADENA         PTCLDY     1   0  92 CALM      30.50F
GLENWOOD       PTCLDY     7   3  85 N3        30.51F
APPLETON       CLEAR     12   7  79 CALM      30.55F
BENSON         CLEAR     10   3  72 CALM      30.53F
ORTONVILLE     CLEAR     12   7  79 CALM      30.54S
MADISON        CLOUDY    19  12  73 NE5       30.55F WCI  13
WILLMAR        FAIR      12   7  79 N5        30.54F WCI   4
$$
MNZ033>034-036-042>043-049>051-058-059-300900-
   Central Minnesota

CITY           SKY/WX    TMP DP  RH WIND       PRES   REMARKS
ST CLOUD       PTCLDY     9   4  80 NW7       30.54F WCI  -2
SAUK CENTRE    FAIR       6   2  83 N3        30.52F
PAYNESVILLE    CLEAR      6   4  88 CALM      30.53F
AITKIN         FLURRIES   9   1  72 CALM      30.51S
PINE RIVER     PTCLDY     1   0  92 CALM      30.53F
BRAINERD       PTCLDY     5   0  79 N5        30.52F WCI  -4
STAPLES        FAIR       3   1  92 CALM      30.51F
LONG PRAIRIE   FAIR       7   3  85 NW3       30.51F
LITTLE FALLS   PTCLDY     9   3  78 CALM      30.53F
LITCHFIELD     CLEAR     10   9  92 N5        30.54F WCI   2
BUFFALO        CLEAR     11   6  81 NW5       30.56F WCI   3
MAPLE LAKE     CLEAR     11   8  86 NW8       30.55F WCI   0
$$
MNZ037-044-045-052-053-300900-
   East Central Minnesota

CITY           SKY/WX    TMP DP  RH WIND       PRES   REMARKS
PRINCETON      CLEAR      9   5  85 NW3       30.54F
MORA           PTCLDY     7   1  78 CALM      30.55F
CAMBRIDGE      CLEAR     10   1  67 N3        30.53F
RUSH CITY      PTCLDY     9   3  76 N5        30.55F WCI   1
MOOSE LAKE     CLEAR      5   0  78 CALM      30.51F
HINCKLEY       FAIR       7   3  85 CALM      30.54F
CLOQUET        PTCLDY     0  -4  85 W5        30.49R WCI -10
MCGREGOR       PTCLDY     5   1  85 NW3       30.52F
$$
MNZ071>073-080-081-089-090-097-098-300900-
   Southwest Minnesota

CITY           SKY/WX    TMP DP  RH WIND       PRES   REMARKS
MONTEVIDEO     CLEAR     10   9  92 NE3       30.56S
GRANITE FALLS  CLEAR     13   9  83 CALM      30.57S
CANBY          PTCLDY    16  11  82 CALM      30.54F
MARSHALL       CLOUDY    16   9  73 NE6       30.55F WCI   7
REDWOOD FALLS  CLEAR     14   8  77 N6        30.55S WCI   5
OLIVIA         CLEAR     14   9  79 N7        30.54S WCI   4
PIPESTONE      CLOUDY    19  16  86 SE3       30.48F
WINDOM         CLEAR     14  10  85 N7        30.52S WCI   4
WORTHINGTON    CLOUDY    18  10  73 N7        30.51F WCI   8
JACKSON        PTCLDY    18  12  79 VRB6      30.51F WCI   9
TRACY          CLOUDY    17  14  86 N6        30.54S WCI   9
SLAYTON        CLOUDY    17  13  84 CALM      30.52S
$$
MNZ065>067-074>077-082>085-091>093-300900-
   South Central Minnesota

CITY           SKY/WX    TMP DP  RH WIND       PRES   REMARKS
MANKATO        CLEAR     14   7  73 N10       30.54S WCI   1
NEW ULM        CLEAR     12   9  85 CALM      30.55S
ST JAMES       CLEAR     16  10  79 NW5       30.56S WCI   9
FAIRMONT       CLEAR     14   9  79 N9        30.53S WCI   2
GLENCOE        CLEAR     14  10  86 NW6       30.55S WCI   5
FARIBAULT      CLEAR     12   9  85 NW6       30.54S WCI   3
OWATONNA       CLEAR     14   9  79 NW7       30.53R WCI   4
WASECA         CLEAR     14  10  85 NW9       30.55R WCI   2
ALBERT LEA     CLEAR     16  10  79 NW8       30.52R WCI   5
$$
MNZ078>079-086>088-094>096-300900-
   Southeast Minnesota

CITY           SKY/WX    TMP DP  RH WIND       PRES   REMARKS
ROCHESTER      CLEAR     12   4  70 N13       30.50R WCI  -3
RED WING       PTCLDY    12   3  67 N3        30.55S
STANTON        CLEAR     14   7  73 N5        30.53S WCI   6
DODGE CENTER   PTCLDY    12   7  79 N7        30.50R WCI   2
WINONA         CLEAR     16   9  73 NW8       30.55R WCI   5
AUSTIN         CLEAR     14   9  79 N6        30.51R WCI   5
PRESTON        CLEAR     12   6  76 N12       30.48S WCI  -2
$$
ABBREVIATIONS USED IN REMARKS
   TC - TEMPERATURES IN CELSIUS
  WCI - WIND CHILL INDEX
   HX - HEAT INDEX
  VSB - VISIBILITY
$$


USA.gov is the U.S. government's official web portal to all federal, state and local government web resources and services.